Flag for Portugal Weather past 2 weeks in Funchal, Madeira, Portugal

Now
79 °F

Scattered clouds.


Feels Like: 81 °F
Forecast: 74 / 79 °F
Wind: 5 mph from Southeast

Location: Aeroporto Da Madeira

Current Time: Aug 30, 2015 at 11:48:37 AM

Latest Report: Aug 30, 2015 at 11:30 AM


Visibility: N/A

Pressure: 30.01 "Hg

Humidity: 74%

Dew point: 70 °F

Location of FunchalLocation

Historic Weather in Funchal — Graph

°F

Funchal temperature yesterday

Maximum temperature yesterday: 81 °F (at 3:30 PM)
Minimum temperature yesterday: 70 °F (at 5:30 AM)
Average temperature yesterday: 75 °F

Past Weeks' High & Low Weather Summary

 TemperatureHumidityPressure
High81 °F (Aug 16, 2:00 PM)94% (Aug 17, 6:30 AM)30.24 "Hg (Aug 17, 6:30 AM)
Low68 °F (Aug 24, 3:00 AM)47% (Aug 15, 2:00 PM)29.95 "Hg (Aug 29, 4:00 PM)
Average74 °F69%30.12 "Hg
* Reported Aug 15 10:00 AM — Aug 30 10:30 AM, Funchal, Weather by CustomWeather, © 2015

Note: Actual official high and low records may vary slightly from our data, if they occured in-between our weather recording intervals... More about our weather records

Advertising

Funchal weather history for previous 24 hours

 ConditionsComfort  
Time TempWeatherWind HumidityBarometerVisibility
10:30 AM
Sun, Aug 30
79 °FScattered clouds.5 mph74%30.01 "HgN/A
10:00 AM77 °FPassing clouds.5 mph79%29.98 "HgN/A
9:30 AM77 °FPassing clouds.3 mph74%29.98 "HgN/A
9:00 AM77 °FPassing clouds.1 mph74%29.98 "HgN/A
8:30 AM75 °FPassing clouds.2 mph74%29.98 "HgN/A
8:00 AM73 °FPassing clouds.3 mph78%29.95 "HgN/A
7:30 AM72 °FPassing clouds.2 mph83%29.95 "HgN/A
7:00 AM72 °FPassing clouds.2 mph83%29.95 "HgN/A
6:30 AM73 °FPassing clouds.3 mph74%29.95 "HgN/A
6:00 AM73 °FPassing clouds.5 mph74%29.95 "HgN/A
5:30 AM73 °FPassing clouds.5 mph74%29.95 "HgN/A
4:30 AM73 °FPassing clouds.2 mph74%29.95 "HgN/A
4:00 AM73 °FPassing clouds.2 mph74%29.95 "HgN/A
3:30 AM73 °FPassing clouds.No wind78%29.95 "HgN/A
3:00 AM73 °FPassing clouds.No wind78%29.95 "HgN/A
2:30 AM73 °FPassing clouds.3 mph74%29.95 "HgN/A
2:00 AM75 °FPassing clouds.3 mph69%29.95 "HgN/A
1:30 AM73 °FPassing clouds.2 mph74%29.98 "HgN/A
1:00 AM73 °FPassing clouds.2 mph74%29.98 "HgN/A
12:30 AM73 °FPassing clouds.1 mph74%29.98 "HgN/A
12:00 AM73 °FPassing clouds.3 mph78%29.98 "HgN/A
11:30 PM
Sat, Aug 29
75 °FPassing clouds.2 mph74%29.98 "HgN/A
11:00 PM75 °FPassing clouds.3 mph74%29.98 "HgN/A
10:30 PM75 °FPassing clouds.2 mph74%29.98 "HgN/A
10:00 PM75 °FPassing clouds.3 mph74%29.95 "HgN/A
9:30 PM75 °FPassing clouds.2 mph74%29.95 "HgN/A
9:00 PM77 °FPassing clouds.5 mph69%29.95 "HgN/A
8:30 PM77 °FPassing clouds.6 mph69%29.95 "HgN/A
8:00 PM77 °FScattered clouds.3 mph74%29.95 "HgN/A
7:30 PM77 °FScattered clouds.6 mph74%29.95 "HgN/A
7:00 PM77 °FScattered clouds.8 mph74%29.95 "HgN/A
6:30 PM77 °FScattered clouds.9 mph74%29.95 "HgN/A
6:00 PM81 °FPartly sunny.9 mph62%29.95 "HgN/A
5:30 PM79 °FPartly sunny.13 mph65%29.95 "HgN/A
5:00 PM77 °FPartly sunny.16 mph74%29.95 "HgN/A
4:30 PM77 °FPartly sunny.18 mph74%29.95 "HgN/A
4:00 PM79 °FScattered clouds.18 mph70%29.95 "HgN/A
3:30 PM81 °FScattered clouds.18 mph62%29.98 "HgN/A
3:00 PM79 °FScattered clouds.18 mph70%29.98 "HgN/A
2:30 PM77 °FScattered clouds.15 mph74%29.98 "HgN/A
2:00 PM77 °FScattered clouds.10 mph74%29.98 "HgN/A
1:30 PM79 °FScattered clouds.10 mph74%30.01 "HgN/A
1:00 PM79 °FScattered clouds.9 mph70%30.01 "HgN/A
12:30 PM79 °FPassing clouds.8 mph70%30.01 "HgN/A
12:00 PM79 °FPassing clouds.10 mph70%30.01 "HgN/A
11:00 AM77 °FPassing clouds.10 mph74%30.01 "HgN/A
Weather by CustomWeather, © 2015

See weather overviewHow to use our weather pages